User: anonymous   Login
Location: Unspecified
(0.0000°N, 0.0000°E)
Time: 09:11:50
(UTC+00:00)
Language:

Kosmos-1506 - Orbit

View from above orbital plane
View from above orbital plane
View from above satellite
View from above satellite

Ground track
Ground track

The orbit data is extracted from the following two-line orbital elements,

1 14450U 83108A   18109.70184449  .00000016  00000-0  20307-6 0  9995
2 14450  82.9297 328.3263 0044023  53.5096   9.8707 13.76232298547944
Epoch (UTC): 19 April 2018 16:50:39
Eccentricity: 0.0044023
inclination: 82.9297°
perigee height: 945 km
apogee height: 1009 km
right ascension of ascending node: 328.3263°
argument of perigee: 53.5096°
revolutions per day: 13.76232298
mean anomaly at epoch: 9.8707°
orbit number at epoch: 54794

The dashed part of the orbit path shows where the satellite is in the earth's shadow,  

DLR